Location: Hurecourt
(47.9030°N, 6.0653°E)
Time: 08:42:02
(UTC+00:00)

Cosmos 1763 Rocket - Pass Details

Date: 14 July 2020
Orbit: 732 x 781 km, 74.0° (Epoch: 14 August)

Event Time Altitude Azimuth Distance (km) Brightness Sun altitude
Rises 02:21:56 0° 338° (NNW) 3,239 7.2 -11.7°
Reaches altitude 10° 02:24:19 10° 339° (NNW) 2,316 6.4 -11.5°
Maximum altitude 02:29:35 79° 67° (ENE) 793 3.7 -10.9°
Drops below altitude 10° 02:34:53 10° 154° (SSE) 2,324 5.8 -10.4°
Sets 02:37:16 0° 156° (SSE) 3,250 6.5 -10.1°
